EW5807 Weather Reports


time (UTC)temp
F
wind
direction
speed
knots
gust
knots
rain 1hr
in
rain 24hr
in
rain mn
in
humidity
%
barometer
mb
20260506004536 55 219 7.0 12.2 0.01 0.06 0.06 64 1006.1
20260506003027 55 242 5.2 9.6 0.01 0.06 0.06 75 1005.9
20260506001523 52 149 0.9 3.5 0.01 0.06 0.06 76 1006.5
20260506000028 51 96 0.9 4.3 0.01 0.06 0.06 75 1006.7
20260505234521 51 246 2.6 6.1 0.00 0.05 0.05 73 1006.5
20260505233021 52 207 3.5 7.8 0.00 0.05 0.05 67 1006.4
20260505231554 53 222 4.3 7.8 0.00 0.05 0.05 68 1006.4
20260505230100 53 189 5.2 9.6 0.04 0.05 0.05 73 1006.3
20260505224532 52 203 3.5 9.6 0.05 0.05 0.05 81 1006.3
20260505223018 51 148 2.6 7.0 0.05 0.05 0.05 82 1006.6
20260505221512 50 110 0.9 3.5 0.05 0.05 0.05 77 1006.7
20260505220022 54 341 3.5 7.8 0.01 0.01 0.01 68 1007.2
20260505214509 57 197 1.7 7.0 0.00 0.00 0.00 53 1006.3
20260505213003 57 231 6.1 10.4 0.00 0.00 0.00 49 1006.1
20260505211502 59 226 7.0 11.3 0.00 0.00 0.00 47 1006.1
20260505210108 60 214 5.2 11.3 0.00 0.00 0.00 47 1006.2
20260505204559 61 211 6.1 13.0 0.00 0.00 0.00 45 1006.1
20260505203055 61 198 6.1 11.3 0.00 0.00 0.00 46 1006.2
20260505201557 59 250 4.3 8.7 0.00 0.00 0.00 49 1006.3
20260505200019 58 251 3.5 8.7 0.00 0.00 0.00 51 1006.6
20260505194518 57 271 4.3 8.7 0.00 0.00 0.00 51 1006.9
20260505193034 57 208 7.0 11.3 0.00 0.00 0.00 51 1006.8
20260505191510 58 193 3.5 10.4 0.00 0.00 0.00 51 1006.6
20260505190020 57 250 3.5 8.7 0.00 0.00 0.00 53 1006.5
20260505184502 57 219 1.7 11.3 0.00 0.00 0.00 53 1006.6
20260505183056 56 179 3.5 12.2 0.00 0.00 0.00 53 1006.5
20260505181551 55 251 5.2 11.3 0.00 0.00 0.00 56 1006.5
20260505180050 56 191 5.2 12.2 0.00 0.00 0.00 54 1006.3
20260505174543 57 194 7.8 13.9 0.00 0.00 0.00 53 1006.2
20260505173040 55 203 6.1 11.3 0.00 0.00 0.00 55 1006.3
20260505171536 55 232 6.1 11.3 0.00 0.00 0.00 55 1006.2
20260505170024 55 207 5.2 10.4 0.00 0.00 0.00 53 1005.9
20260505164532 56 229 6.1 12.2 0.00 0.00 0.00 52 1005.9
20260505163046 54 240 7.8 11.3 0.00 0.00 0.00 54 1006.0
20260505161542 53 231 7.0 12.2 0.00 0.00 0.00 55 1005.9
20260505153108 51 207 5.2 12.2 0.00 0.00 0.00 63 1005.6
20260505151552 51 220 5.2 11.3 0.00 0.00 0.00 64 1005.5
20260505150107 50 226 5.2 8.7 0.00 0.00 0.00 64 1005.5
20260505124501 0 0.0 0.0 0.00 0.00 0.00 1004.6
20260505123110 0 0.0 0.0 0.00 0.00 0.00 1004.6
20260505121550 0 0.0 0.0 0.00 0.00 0.00 1004.6
20260505120051 0 0.0 0.0 0.00 0.00 0.00 1004.9
20260505114552 0 0.0 0.0 0.00 0.00 0.00 1005.1
20260505113036 -90 263 2.6 5.2 0.00 0.00 0.00 78 1004.8
20260505111533 44 198 4.3 8.7 0.00 0.00 0.00 79 1004.7
20260505101556 43 228 4.3 8.7 0.00 0.00 0.00 82 1004.1
20260505100101 44 213 3.5 7.8 0.00 0.00 0.00 83 1004.1
20260505094520 44 188 3.5 9.6 0.00 0.00 0.00 82 1004.3
20260505093018 45 233 6.1 10.4 0.00 0.00 0.00 83 1004.3
20260505091549 45 197 6.1 11.3 0.00 0.00 0.00 84 1004.3
20260505090052 45 183 6.1 13.0 0.00 0.00 0.00 84 1004.5
20260505084541 45 198 6.1 13.0 0.00 0.00 0.00 83 1004.8
20260505083037 45 202 7.0 13.0 0.00 0.00 0.00 81 1004.8
20260505081542 46 221 7.8 13.9 0.00 0.00 0.00 80 1004.7
20260505080046 46 189 7.0 13.0 0.00 0.00 0.00 77 1004.6
20260505074559 46 185 6.1 12.2 0.00 0.00 0.00 77 1004.3
20260505073100 46 200 8.7 13.0 0.00 0.00 0.00 76 1004.4
20260505071555 47 195 8.7 14.8 0.00 0.00 0.00 74 1004.4
20260505070054 48 184 8.7 14.8 0.00 0.00 0.00 70 1004.3
20260505064548 48 206 9.6 13.9 0.00 0.00 0.00 69 1004.1
20260505063045 48 194 7.8 13.0 0.00 0.00 0.00 67 1004.0
20260505061541 48 203 7.0 11.3 0.00 0.00 0.00 66 1004.3
20260505060037 49 216 6.1 13.0 0.00 0.00 0.00 65 1004.1
20260505054534 50 214 5.2 13.0 0.00 0.00 0.00 63 1004.1
20260505053031 51 182 6.1 10.4 0.00 0.00 0.00 61 1004.2
20260505051526 51 203 2.6 8.7 0.00 0.00 0.00 61 1004.5
20260505041558 51 198 6.1 13.9 0.00 0.00 0.00 60 1003.7
20260505040053 52 203 7.8 13.0 0.00 0.00 0.00 59 1003.6
20260505034537 53 162 7.0 13.9 0.00 0.00 0.00 56 1003.2
20260505033037 54 181 7.8 17.4 0.00 0.00 0.00 56 1003.0
20260505031540 54 214 6.1 13.0 0.00 0.00 0.00 55 1002.9
20260505030036 54 202 7.8 14.8 0.00 0.00 0.00 56 1002.8
20260505024558 55 190 7.8 12.2 0.00 0.00 0.00 54 1002.5
20260505023055 55 212 7.0 15.6 0.00 0.00 0.00 53 1002.2
20260505021525 56 242 9.6 14.8 0.00 0.00 0.00 51 1001.9
20260505020020 57 171 7.0 13.9 0.00 0.00 0.00 50 1001.7
20260505014513 58 194 8.7 14.8 0.00 0.00 0.00 48 1001.3
20260505013013 60 212 6.1 10.4 0.00 0.00 0.00 45 1001.0
20260505011510 59 211 7.0 12.2 0.00 0.00 0.00 47 1000.8
20260505010005 59 238 5.2 12.2 0.00 0.00 0.00 46 1000.5